Meath Environmental Platform

Observations for Trim Market St

Time AQI Temp °C Hum % Pres Pa CO μg/m³ H₂S μg/m³ NO μg/m³ NO₂ μg/m³ O₃ μg/m³ SO₂ μg/m³ PM1 μg/m³ PM2.5 μg/m³ PM10 μg/m³
Wednesday 12 August 2026
04:52 2 19.1 67 56,758 0.06 0 1.41 12.62 67.68 0 2.14 4.66 7.53
04:51 2 19.1 67 56,777 0.07 0 1.3 16.6 61.91 0 2.85 5.15 7.53
04:50 2 19.1 67 56,794 0.07 0 1.29 12.73 63.41 0 2.85 5.15 8.82
04:49 2 19.1 67 56,805 0.07 0 1.29 14.03 63.53 0 2.14 3.68 6.24
04:48 2 19.1 67 56,815 0.06 0 1.29 11.33 71 0 3.56 5.15 7.53
04:47 2 19.1 67 56,812 0.06 0 1.27 14.81 59.92 0 2.85 5.15 8.82
04:46 2 19.2 67 56,820 0.07 0 1.28 12.54 66.03 0 2.85 4.66 8.17
04:45 2 19.1 67 56,834 0.07 0 1.29 12.62 63.78 0 2.14 4.66 6.89
04:44 2 19.1 67 56,846 0.07 0 1.29 12.84 70.08 0 3.56 5.16 8.82
04:38 2 19.1 67 56,866 0.08 0 1.28 29.81 58.74 0 2.85 5.17 7.53
04:37 2 19.1 67 56,880 0.08 0 1.27 12.44 58.25 0 0.71 3.2 4.95
04:33 2 19.1 66 56,884 0.07 0 1.29 12.02 68.34 0 2.85 3.22 4.94
04:32 2 19.1 67 56,896 0.06 0 1.29 27.05 59.62 0 2.14 4.68 6.88
04:26 2 19.1 67 56,944 0.06 0 1.3 13.08 62.6 0 2.14 3.71 6.24
04:25 2 19.1 66 56,957 0.07 0 1.3 12.91 64.9 0 1.43 3.22 4.94
04:24 2 19.1 67 56,957 0.07 0 1.29 12.2 61.44 0 2.14 4.2 6.88
04:22 2 19.1 66 56,952 0.08 0 1.28 12.29 67.71 0 0.71 2.73 4.94
04:21 2 19.2 66 56,950 0.06 0 1.29 12.68 64.51 0 1.43 3.22 4.94
04:20 2 19.2 66 56,950 0.06 0 1.29 12.22 64.28 0 2.14 4.2 6.23
04:19 2 19.2 66 56,957 0.06 0 1.27 12.68 63.92 0 2.14 4.21 6.23